Preview of NWS' New Version of Forecast
This preview is not operational and should not be used for support decisions.

Regional Weather Roundup (RWR)

Issued by National Weather Service (NWS)

                            
000
ASUS43 KBIS 170602
RWRND 

NORTH DAKOTA REGIONAL WEATHER ROUNDUP
NATIONAL WEATHER SERVICE BISMARCK ND
100 AM CDT MON JUN 17 2019

NOTE: "FAIR" INDICATES FEW OR NO CLOUDS BELOW 12,000 FEET WITH NO
SIGNIFICANT WEATHER AND/OR OBSTRUCTIONS TO VISIBILITY.


NDZ001>003-009>011-017-170700-
NORTHWEST NORTH DAKOTA
  
CITY           SKY/WX    TMP DP  RH WIND       PRES   REMARKS
WILLISTON      CLOUDY    54  47  77 NE5       30.04R                  
6HR MIN TEMP:  54; 6HR MAX TEMP:  66;                                

MINOT          CLEAR     48  45  89 NW9       30.01S                  
MINOT AFB      CLEAR     49  45  88 NW7       30.00S                  
$$
 
NDZ018>021-031>035-040>046-170700-
SOUTHWEST NORTH DAKOTA
  
CITY           SKY/WX    TMP DP  RH WIND       PRES   REMARKS
BISMARCK       PTCLDY    54  48  80 CALM      30.02R                  
6HR MIN TEMP:  52; 6HR MAX TEMP:  68;                                

DICKINSON      PTCLDY    49  45  86 NE7       30.02R                  
GARRISON         N/A     45  44  97 N8        30.01S                  
6HR MIN TEMP:  45; 6HR MAX TEMP:  61;                                

HETTINGER ARPT LGT RAIN  55  49  80 E6        30.02S                  
$$
 
NDZ004>008-012>016-024-026-027-054-170700-
NORTHEAST NORTH DAKOTA
  
CITY           SKY/WX    TMP DP  RH WIND       PRES   REMARKS
GRAND FORKS    CLOUDY    54  52  93 NW12      29.88S                  
GRND FRKS AFB  CLOUDY    54  54 100 N12       29.90S                  
DEVILS LAKE    LGT RAIN  52  51  97 N12       29.97R FOG              
$$
 
NDZ022-023-025-028>030-036>039-047>053-170700-
SOUTHEAST NORTH DAKOTA
  
CITY           SKY/WX    TMP DP  RH WIND       PRES   REMARKS
FARGO          MOCLDY    55  52  89 SW8       29.92R                  
6HR MIN TEMP:  53; 6HR MAX TEMP:  65;                                

JAMESTOWN      CLEAR     50  48  93 W7        29.96S                  
$$